[[{"header":{"parameterUnit":"m.s-1","parameterCategory":1,"la1":30.2991,"la2":30.254,"lo1":-89.0895,"lo2":-89.0444,"dy":0.0017,"dx":0.0017,"nx":28,"ny":28,"refTime":"2025-07-30T03:00:00:Z","depth":0,"parameterNumber":2,"parameterNumberName":"U-component_of_WINDS"},"data":[0,0,0,0,0,0,0,0,0,0,0,0,0,0,0,0,0,0,0,0,0,0,0,0,0,0,0,0,0,0,0,0,0,0,0,0,0,0,0,0,0,0,0,0,0,0,0,0,0,0,0,0,0,0,0,0,0,0,1.5853,1.5854,0,1.5918,1.5919,1.5919,1.5937,1.5937,1.5936,1.5936,1.6006,1.6008,1.601,0,0,0,0,0,0,0,0,0,0,0,0,0,1.5751,1.5753,1.5853,1.5854,1.5855,1.5918,1.5919,1.592,1.5937,1.5937,1.5936,1.5936,1.6005,1.6007,1.601,0,0,0,0,0,0,0,0,0,0,0,0,0,1.5803,1.5753,1.5853,1.5871,1.5873,1.5918,1.5919,1.592,1.5937,1.5937,1.5936,1.5936,1.6004,1.6007,1.601,1.6042,0,0,1.6021,1.6022,0,0,0,0,0,0,0,0,1.58,1.5807,1.5868,1.587,1.5873,1.5919,1.5908,1.5961,1.5937,1.5913,1.5936,1.5935,1.5977,1.5983,1.5996,1.6046,1.6049,1.6021,1.6023,1.6024,1.6025,0,0,0,0,0,0,0,1.5797,1.5805,1.5879,1.5869,1.5872,1.5878,1.5885,1.5918,1.5948,1.5915,1.5917,1.5924,1.5979,1.5993,1.5998,1.605,1.6021,1.6024,1.6026,1.6027,1.6132,1.6133,0,0,0,0,0,0,1.5789,1.5801,1.5877,1.5881,1.5834,1.588,1.5888,1.5905,1.5947,1.5953,1.5924,1.5924,1.5988,1.5994,1.6001,1.6043,1.6024,1.6027,1.6029,1.6132,1.6133,1.6133,0,0,0,0,0,0,1.5787,1.5796,1.5874,1.5842,1.5852,1.5883,1.5901,1.5906,1.5921,1.5954,1.596,1.5933,1.5988,1.5996,1.6032,1.6045,1.6029,1.6032,1.6131,1.6132,1.6133,1.6125,0,0,0,0,0,0,1.5784,1.5795,1.5806,1.5842,1.5854,1.5903,1.5902,1.5908,1.5926,1.5927,1.5964,1.597,1.5988,1.6027,1.6036,1.6049,1.6035,1.613,1.6131,1.6133,1.6125,1.6126,1.6128,0,0,0,0,0,1.578,1.5801,1.5806,1.5815,1.5868,1.5904,1.5911,1.593,1.5927,1.5939,1.5961,1.5969,1.6043,1.6031,1.6041,1.6055,1.6129,1.6131,1.6133,1.6124,1.6126,1.6128,0,0,0,0,0,0,1.5766,1.5806,1.5812,1.5845,1.5871,1.5907,1.5922,1.5931,1.5959,1.5959,1.5982,1.5991,1.6026,1.6045,1.6031,1.6091,1.6086,1.609,1.6077,1.6079,1.608,1.6075,1.6037,0,0,0,0,0,1.5767,1.5791,1.5825,1.5851,1.5864,1.5891,1.5907,1.592,1.5948,1.596,1.5984,1.6013,1.6043,1.6062,1.6091,1.6128,1.6138,1.6144,1.6145,1.6146,1.6149,1.6173,1.6176,1.6139,1.6139,1.6139,0,0,1.5768,1.5793,1.5807,1.5849,1.587,1.5897,1.59,1.5927,1.5948,1.5964,1.6,1.602,1.6054,1.6091,1.6109,1.6107,1.6162,1.6148,1.6149,1.6151,1.6175,1.6178,1.6181,1.6141,1.614,1.614,0,0,1.5784,1.5805,1.583,1.5852,1.5885,1.5903,1.5909,1.5945,1.5958,1.5995,1.6008,1.6035,1.6085,1.6109,1.6128,1.6158,1.6166,1.6167,1.6174,1.6197,1.62,1.6202,1.6214,1.6218,1.617,1.617,1.617,0,1.5782,1.5821,1.5841,1.5869,1.5888,1.5904,1.5931,1.5952,1.5993,1.6007,1.6005,1.6071,1.6094,1.6139,1.6146,1.6161,1.617,1.6162,1.6197,1.62,1.6203,1.6215,1.6219,1.617,1.617,1.617,1.617,0,1.5818,1.5845,1.5862,1.5901,1.5922,1.5949,1.5975,1.5995,1.6007,1.6027,1.6066,1.6095,1.6132,1.6144,1.6156,1.6191,1.619,1.6192,1.6188,1.6206,1.6218,1.6222,1.6169,1.617,1.617,1.617,0,0,1.5824,1.5876,1.5882,1.5901,1.594,1.5963,1.5992,1.6028,1.6045,1.6074,1.61,1.6145,1.6148,1.617,1.6185,1.6205,1.623,1.6206,1.6208,1.621,1.6273,1.627,1.6275,1.6236,1.6237,1.6238,1.627,0,1.5845,1.5896,1.5917,1.5959,1.5986,1.6004,1.603,1.6059,1.6079,1.6106,1.613,1.6161,1.6163,1.6176,1.6197,1.6222,1.6242,1.622,1.6263,1.6264,1.6253,1.628,1.6277,1.6306,1.6275,1.6275,1.6276,0,1.5876,1.5905,1.595,1.5989,1.6001,1.6024,1.606,1.6085,1.6119,1.6133,1.6158,1.6174,1.6208,1.6203,1.6252,1.6236,1.6256,1.6271,1.6273,1.6277,1.627,1.6286,1.6315,1.632,1.6283,1.6283,1.6282,0,1.5877,1.5928,1.5962,1.5978,1.6023,1.604,1.606,1.6093,1.6114,1.6146,1.6161,1.6197,1.6217,1.6246,1.6271,1.6265,1.6319,1.6315,1.6332,1.6332,1.6342,1.6341,1.6375,1.6355,1.6354,1.6354,1.6354,0,1.5899,1.5925,1.5963,1.5984,1.6016,1.6041,1.6073,1.6095,1.6125,1.6152,1.6171,1.6196,1.6229,1.6259,1.628,1.6319,1.6327,1.6341,1.6346,1.6339,1.6337,1.6351,1.635,1.6356,1.6355,1.6355,1.6355,0,1.5904,1.593,1.5969,1.601,1.6021,1.6043,1.6079,1.6101,1.6123,1.6158,1.6168,1.6203,1.624,1.6269,1.6318,1.6332,1.6373,1.6379,1.6361,1.6364,1.6379,1.6378,1.6423,1.6432,1.6405,1.6406,1.6406,0,1.5915,1.5937,1.5981,1.6,1.602,1.605,1.6072,1.61,1.6122,1.6164,1.6182,1.6221,1.6253,1.6312,1.6344,1.6382,1.6389,1.6402,1.6394,1.6388,1.639,1.6388,1.6391,1.6403,1.6403,1.6403,1.6403,0,1.5934,1.5946,1.5976,1.6012,1.6038,1.6067,1.6098,1.6113,1.6146,1.6171,1.6209,1.6234,1.6285,1.6324,1.6366,1.6389,1.6403,1.6406,1.6412,1.6405,1.6394,1.6401,1.6364,1.6404,1.6404,1.6404,1.6404,1.6404,1.5943,1.5964,1.5998,1.6032,1.6058,1.6087,1.611,1.6136,1.6168,1.621,1.6226,1.6265,1.6303,1.636,1.6385,1.6418,1.6418,1.6427,1.6429,1.6431,1.643,1.6389,1.6426,1.6426,1.6426,1.6426,1.6426,0,1.5963,1.5986,1.6018,1.6059,1.6087,1.6097,1.6132,1.6155,1.6189,1.6222,1.6254,1.63,1.6339,1.6374,1.6415,1.6435,1.6443,1.6445,1.6444,1.6449,1.6427,1.6418,1.6439,1.6439,1.6439,1.6439,1.6439,1.6439,1.5976,1.6012,1.6029,1.608,1.6104,1.6143,1.6162,1.619,1.6216,1.6266,1.6298,1.6321,1.6356,1.64,1.6438,1.6447,1.6462,1.6463,1.6474,1.6452,1.6451,1.6449,1.6441,1.6466,1.6466,1.6494,1.6494,1.6494]},{"header":{"parameterUnit":"m.s-1","parameterCategory":1,"la1":30.2991,"la2":30.254,"lo1":-89.0895,"lo2":-89.0444,"dy":0.0017,"dx":0.0017,"nx":28,"ny":28,"refTime":"2025-07-30T03:00:00:Z","depth":0,"parameterNumber":3,"parameterNumberName":"V-component_of_WINDS"},"data":[0,0,0,0,0,0,0,0,0,0,0,0,0,0,0,0,0,0,0,0,0,0,0,0,0,0,0,0,0,0,0,0,0,0,0,0,0,0,0,0,0,0,0,0,0,0,0,0,0,0,0,0,0,0,0,0,0,0,5.4279,5.428,0,5.443,5.4432,5.4433,5.4476,5.4476,5.4475,5.4474,5.4617,5.4621,5.4626,0,0,0,0,0,0,0,0,0,0,0,0,0,5.4016,5.4021,5.4279,5.4281,5.4282,5.443,5.4432,5.4434,5.4477,5.4476,5.4475,5.4474,5.4615,5.4621,5.4626,0,0,0,0,0,0,0,0,0,0,0,0,0,5.4145,5.4022,5.4278,5.4322,5.4327,5.4429,5.4432,5.4434,5.4477,5.4476,5.4474,5.4473,5.4614,5.462,5.4627,5.4693,0,0,5.4648,5.4651,0,0,0,0,0,0,0,0,5.4137,5.4154,5.4314,5.4319,5.4325,5.4433,5.4392,5.4521,5.4477,5.442,5.4474,5.4473,5.4556,5.4567,5.4598,5.4699,5.4706,5.4648,5.4652,5.4655,5.4657,0,0,0,0,0,0,0,5.4128,5.4148,5.4338,5.4316,5.4323,5.433,5.4347,5.4416,5.4492,5.4424,5.4428,5.4446,5.4559,5.4591,5.4602,5.4708,5.4648,5.4654,5.4658,5.4661,5.4872,5.4873,0,0,0,0,0,0,5.4114,5.414,5.4333,5.4343,5.4227,5.4336,5.4355,5.44,5.4492,5.4505,5.4447,5.4447,5.458,5.4594,5.4607,5.4691,5.4655,5.4662,5.4666,5.487,5.4872,5.4874,0,0,0,0,0,0,5.4108,5.413,5.4327,5.4243,5.4268,5.4342,5.4392,5.4403,5.4436,5.4509,5.4521,5.4467,5.458,5.4597,5.4672,5.4697,5.4665,5.4671,5.4868,5.4871,5.4873,5.486,0,0,0,0,0,0,5.41,5.4128,5.4156,5.4243,5.4273,5.4393,5.4393,5.4407,5.4449,5.4451,5.4531,5.4543,5.458,5.4662,5.4679,5.4706,5.4676,5.4866,5.4869,5.4872,5.4858,5.4861,5.4864,0,0,0,0,0,5.4091,5.4144,5.4158,5.4181,5.431,5.4395,5.4411,5.4457,5.4451,5.4478,5.4525,5.454,5.4691,5.4669,5.4689,5.4718,5.4865,5.4869,5.4872,5.4857,5.4861,5.4864,0,0,0,0,0,0,5.4053,5.4156,5.4172,5.4256,5.4317,5.4402,5.4438,5.4459,5.4519,5.4518,5.4569,5.4586,5.4658,5.4695,5.4668,5.4787,5.4778,5.4786,5.476,5.4764,5.4767,5.4756,5.4682,0,0,0,0,0,5.4055,5.4119,5.4204,5.4269,5.4299,5.4363,5.4402,5.4432,5.4495,5.452,5.4572,5.463,5.4691,5.4729,5.4789,5.4864,5.4881,5.4893,5.4896,5.4898,5.4904,5.4947,5.4953,5.4885,5.4885,5.4885,0,0,5.4058,5.4123,5.4159,5.4263,5.4314,5.4376,5.4384,5.4449,5.4495,5.4528,5.4604,5.4644,5.4712,5.4788,5.4823,5.4821,5.4927,5.4902,5.4903,5.4908,5.4951,5.4957,5.4963,5.4887,5.4887,5.4886,0,0,5.4097,5.4153,5.4214,5.4266,5.4345,5.4388,5.4402,5.4485,5.4515,5.4592,5.4619,5.4672,5.4776,5.4824,5.4861,5.492,5.4936,5.4937,5.4952,5.4993,5.4998,5.5003,5.5025,5.5032,5.4943,5.4943,5.4943,0,5.409,5.4189,5.4241,5.4307,5.4351,5.439,5.4451,5.4497,5.4589,5.4617,5.4614,5.4747,5.4794,5.4882,5.4897,5.4926,5.4943,5.4929,5.4994,5.5,5.5005,5.5026,5.5034,5.4943,5.4943,5.4943,5.4943,0,5.4177,5.4245,5.4284,5.4378,5.4427,5.4489,5.4548,5.459,5.4617,5.4659,5.4737,5.4796,5.487,5.4892,5.4916,5.4984,5.498,5.4985,5.4977,5.5011,5.5031,5.504,5.4942,5.4942,5.4943,5.4943,0,0,5.4195,5.432,5.4333,5.4377,5.4468,5.4519,5.4582,5.4659,5.4694,5.4756,5.4809,5.4897,5.4903,5.4946,5.4975,5.5012,5.5056,5.5012,5.5015,5.5019,5.5134,5.513,5.5139,5.5067,5.5069,5.507,5.5129,0,5.4245,5.4365,5.4415,5.451,5.4573,5.4611,5.4666,5.4726,5.4767,5.4823,5.4867,5.4929,5.4932,5.4958,5.4996,5.5042,5.5079,5.5039,5.5115,5.5117,5.5098,5.515,5.5146,5.5198,5.5137,5.5138,5.5139,0,5.432,5.4388,5.4491,5.4577,5.4605,5.4654,5.4729,5.4783,5.4851,5.4878,5.4927,5.4956,5.5021,5.501,5.51,5.5071,5.5105,5.5132,5.5135,5.5144,5.513,5.516,5.5216,5.5224,5.5152,5.5151,5.515,0,5.4323,5.444,5.4518,5.4554,5.4655,5.4689,5.4731,5.4799,5.4842,5.4906,5.4934,5.5002,5.504,5.5091,5.5136,5.5124,5.5222,5.5214,5.5245,5.5244,5.5264,5.5262,5.5326,5.5285,5.5284,5.5284,5.5284,0,5.4374,5.4435,5.4521,5.4569,5.4638,5.4694,5.476,5.4805,5.4865,5.4919,5.4954,5.5004,5.5062,5.5118,5.5153,5.5223,5.5238,5.5261,5.527,5.5258,5.5256,5.5281,5.5279,5.5286,5.5286,5.5286,5.5285,0,5.4389,5.4449,5.4537,5.4627,5.4651,5.4698,5.4774,5.482,5.4864,5.4933,5.4951,5.5019,5.5087,5.5139,5.5225,5.5249,5.5323,5.5332,5.5302,5.5307,5.5335,5.5332,5.5418,5.5433,5.5381,5.5381,5.5381,0,5.4418,5.4467,5.4564,5.4606,5.4651,5.4716,5.4762,5.4818,5.4863,5.4946,5.4982,5.5054,5.5115,5.5222,5.5276,5.5343,5.5354,5.5379,5.5364,5.5352,5.5355,5.5352,5.5357,5.5381,5.5382,5.5382,5.5382,0,5.4463,5.4491,5.4559,5.4637,5.4692,5.4755,5.4817,5.4848,5.4915,5.4964,5.5037,5.5085,5.5177,5.5247,5.532,5.536,5.5382,5.5387,5.5398,5.5387,5.5368,5.538,5.5309,5.5384,5.5384,5.5384,5.5384,5.5384,5.4486,5.4533,5.461,5.4683,5.4738,5.4797,5.4846,5.4898,5.4961,5.5044,5.5072,5.5147,5.5214,5.5316,5.5357,5.5415,5.5414,5.5429,5.5434,5.5437,5.5437,5.5359,5.5428,5.5428,5.5428,5.5428,5.5428,0,5.4534,5.4586,5.4654,5.4744,5.4802,5.4822,5.4893,5.4939,5.5007,5.507,5.5131,5.5215,5.5284,5.5345,5.5417,5.5451,5.5463,5.5468,5.5466,5.5475,5.5432,5.5416,5.5458,5.5458,5.5458,5.5458,5.5458,5.5458,5.4565,5.4646,5.4683,5.479,5.4841,5.4919,5.4959,5.5012,5.5063,5.5158,5.5218,5.5259,5.5321,5.5398,5.5461,5.5477,5.5502,5.5505,5.5523,5.5482,5.5478,5.5475,5.546,5.551,5.551,5.5562,5.5562,5.5563]}]]